RS-40 (38735 NORAD) Tracking and Keplerian Element Data

This shows tracking and keplerian element data for the satellite.

Feedback or suggestion? Click here.




ElementValue
Catalog38735
NameRS-40
Epoch Orbit55374
Epoch Day286.48773427
Epoch Year2024
RAAN96.7466
Inclination82.4707
Eccentricity0.0016928
Argument of Perigee325.4447
Mean Anonmoly34.5531
Mean Motion12.42618035
Decay Rate8E-07
L11 38735U 12041C 24286.48773427 .00000080 00000-0 50598-3 0 9996
L22 38735 82.4707 96.7466 0016928 325.4447 34.5531 12.42618035553746



Live tracking and technical data element details for RS-40 (NORAD 38735). RS-40 can be tracked NOW for your location showing map with azimuth and elevation plus other details from your city location.







IsCatalogInMostPopularTable: catalog: 38735, numindb: 367
Update: records affected: 1



GetName: 38735 RS-40

Hit Count: updated at: Sat, 25 Jan 2025 00:00:10 GMT